Kezdőlap
METAR-TAF:

METAR-TAF

Repülőterek :

Pekanbaru, Indonézia

földrajzi szélesség: 00-28N, földrajzi hosszúság: 101-27E, magasság: 31 m

Jelenlegi meteorológiai megfigyelések

A jelentés 13 perccel ezelõtt készült, 15:00 UTC
Délkeleti szél 4 kt
Hőmérséklet 28°C
Páratartalom 74%
Légköri nyomás 1008 hPa
Látótávolság: 7000 m

METAR: WIBB 161500Z 14004KT 7000 NSC 28/23 Q1008

Idő: 22:13 (15:13 UTC)


TAF: hiányzik

Meteorológiai megfigyelések és előrejelzések több, mint 4000 repülőtéren (METAR és TAF jelentéseket).

A térképen piros és sárga pontok jelzik az elérhető meteorológiai állomásokat.

Mozgassa az egeret a pont fölött, hogy megjelenjen az állomás neve.

Azután kattintson az időjárási megfigyelések és előrejelzések megtekintéséhez.

A térkép megváltoztatása: kattintson a fekete keresztel jelölt zöld gombra ráközelítéshez, a vonallal jelölt zöld gombra távolításhoz, vagy a zöld nyilakra a szomszédos térképek eléréséhez.


METAR-TAF: